Starlink 31566

operational
NORAD ID: 59475 Int'l Des: 2024-068 Owner: SPXS Country: US Constellation: starlink
LEOCIRCULAR

About Starlink 31566

Description loading...

Live Position

Loading 3D Globe...

Upcoming Passes

Altitude History

Altitude vs Time

uPlot chart will show altitude changes over time

Two-Line Element Set

1 59475U 24068W 26033.90049801 -.00000495 00000-0 -84716-5 0 9996
2 59475 43.0007 230.8531 0001347 270.2112 89.8585 15.27577627103206
Epoch: Feb 2, 2026 • Age: 15 hours

Current Status

Altitude 493.7 km
Velocity 7.62 km/s
Sub-Earth Point -38.61°S, 160.14°W
Launch Date Apr 10, 2024
Age 1.8 years
Type internet

Technical Details

Classification Payload
Mass 730.00 kg
Dry Mass 700.00 kg
Total Mass 730.00 kg
Length 0.30 m
Diameter 4.10 m
Span 29.00 m
Shape Box + pan
Manufacturer SPXS
Bus Type Starlink V2M
Phase Status In Orbit
Owner/State SPXS/US

Large Constellations

Loading constellations...